Back to catalog

WESTFORD NEEDLES

LostPO
NORAD 2532·DEBRIS·🇺🇸 United States

Launched May 9, 1963 from Vandenberg Space Force Base

Loading…

Next Passes (next 24 hours)

TLE

StaleSource: Space-Track

Epoch: Apr 16, 2023, 18:44 UTC

1  2532U 63014AL  23106.78082352 -.00000062  00000-0 -28241-1 0  9991
2  2532  87.3257 248.7362 0379925 109.4647 254.7657  8.66892838300135

Track WESTFORD NEEDLES in real time with AllMySat

Download on the App Store